This is the latest recevied weather packets stored in our database for station/object GJ7DNI-13. If no packets are shown the sender has not sent any weather packets the latest 10 day(s).
| Time | Temp. | Humidity | Pressure | Rain* | Wind** | Luminosity | Snow |
|---|---|---|---|---|---|---|---|
| 1777475410 | 16.67° C | 61% | 1012.6 hPa | 0 mm | - | 237 W/m² | - |
| 1777475112 | 16.11° C | 61% | 1012.8 hPa | 0 mm | - | 225 W/m² | - |
| 1777474811 | 16.11° C | 61% | 1012.8 hPa | 0 mm | - | 221 W/m² | - |
| 1777474511 | 16.11° C | 61% | 1013 hPa | 0 mm | - | 230 W/m² | - |
| 1777474211 | 16.11° C | 61% | 1012.8 hPa | 0 mm | - | 218 W/m² | - |
| 1777473911 | 16.11° C | 61% | 1012.9 hPa | 0 mm | - | 188 W/m² | - |
| 1777473611 | 16.11° C | 61% | 1013 hPa | 0 mm | - | 186 W/m² | - |
| 1777473311 | 16.11° C | 61% | 1012.9 hPa | 0 mm | - | 206 W/m² | - |
| 1777473011 | 16.11° C | 61% | 1013 hPa | 0 mm | - | 209 W/m² | - |
| 1777472711 | 16.11° C | 61% | 1013.1 hPa | 0 mm | - | 214 W/m² | - |
| 1777472411 | 15.56° C | 61% | 1013.2 hPa | 0 mm | - | 225 W/m² | - |
| 1777472141 | 15.56° C | 63% | 1013.1 hPa | 0 mm | - | 230 W/m² | - |
| 1777472111 | 15.56° C | 62% | 1013.2 hPa | 0 mm | - | 230 W/m² | - |
| 1777471811 | 15.56° C | 63% | 1013.1 hPa | 0 mm | - | 230 W/m² | - |
| 1777471582 | 15.56° C | 62% | 1013.4 hPa | 0 mm | - | 172 W/m² | - |
| 1777471511 | 15.56° C | 62% | 1013.2 hPa | 0 mm | - | 213 W/m² | - |
| 1777471211 | 15.56° C | 62% | 1013.3 hPa | 0 mm | - | 188 W/m² | - |
| 1777470911 | 15.56° C | 62% | 1013.4 hPa | 0 mm | - | 178 W/m² | - |
| 1777470611 | 15.56° C | 62% | 1013.4 hPa | 0 mm | - | 172 W/m² | - |
| 1777470385 | 16.11° C | 61% | 1013.4 hPa | 0 mm | - | 207 W/m² | - |
| 1777470381 | 16.11° C | 61% | 1013.5 hPa | 0 mm | - | 288 W/m² | - |
| 1777470311 | 15.56° C | 62% | 1013.4 hPa | 0 mm | - | 186 W/m² | - |
| 1777470011 | 15.56° C | 62% | 1013.5 hPa | 0 mm | - | 181 W/m² | - |
| 1777469711 | 15.56° C | 61% | 1013.5 hPa | 0 mm | - | 192 W/m² | - |
| 1777469411 | 16.11° C | 61% | 1013.4 hPa | 0 mm | - | 207 W/m² | - |
* Rain latest hour (hover to see other rain measurements)
** Current wind speed in m/s (hover to see current wind gust speed)